Vorticity
nan nan nan nan nan nan nan nan nan nan nan nan nan nan nan nan nan nan nan nan nan nan nan nan nan nan nan nan nan nan nan nan nan nan nan nan nan nan nan nan nan nan nan
nan 7 8 7 7 8 7 8 7 8 8 8 8 8 8 7 9 6 6 14 15 8 6 5 6 6 7 6 7 6 6 7 6 6 7 8 8 7 6 6 7 5 nan
nan 7 6 8 8 8 7 8 9 7 8 9 8 8 8 8 9 8 8 8 16 17 8 4 7 7 7 7 6 6 6 6 6 6 6 6 8 8 7 6 6 6 nan
nan 6 7 8 9 8 8 8 7 8 9 8 8 8 8 9 9 9 7 8 9 13 16 12 10 10 6 5 6 7 6 6 6 6 6 6 6 7 7 6 6 7 nan
nan 7 8 10 10 8 9 8 8 10 8 8 8 8 9 8 8 10 10 8 7 6 10 17 18 13 8 6 6 7 7 6 6 6 6 5 6 6 8 8 7 6 nan
nan 8 10 12 8 6 7 11 10 8 8 9 9 9 8 8 9 9 9 9 9 8 6 9 14 19 18 8 8 8 8 7 7 6 6 6 6 6 6 7 8 7 nan
nan 9 12 12 8 7 5 7 11 8 10 10 9 11 11 12 8 6 8 9 8 9 9 8 7 10 19 20 13 7 8 9 7 6 6 6 6 6 7 7 7 7 nan
nan 9 8 10 9 6 8 9 8 9 10 9 8 8 9 12 15 12 9 9 9 10 11 10 8 6 7 16 19 15 10 10 8 7 6 6 7 7 7 7 7 7 nan
nan 6 7 9 10 9 8 9 10 8 7 9 10 5 7 8 9 14 12 10 12 10 10 11 10 10 8 9 10 16 17 11 9 7 7 7 7 7 7 7 7 7 nan
nan 9 12 9 8 9 9 9 9 9 7 8 11 10 7 6 5 6 11 12 12 10 9 8 10 10 8 11 14 11 11 14 8 9 9 8 7 7 8 7 7 7 nan
nan 9 11 9 8 9 10 9 9 11 9 8 8 10 13 12 10 7 6 6 9 11 10 9 9 10 11 8 10 14 12 11 10 10 10 9 8 8 7 7 7 7 nan
nan 7 8 9 9 8 9 11 11 10 10 10 9 8 10 12 13 12 10 8 7 9 9 10 11 12 11 12 10 9 8 6 15 15 13 14 11 10 9 8 7 7 nan
nan 7 7 8 9 8 10 10 9 10 11 11 10 10 8 10 12 10 11 10 9 9 10 11 9 10 10 12 15 12 9 11 13 12 14 18 19 16 12 10 9 9 nan
nan 8 7 8 8 10 10 10 9 8 9 9 10 12 11 9 10 11 10 10 9 9 10 9 9 10 10 8 8 13 15 14 15 13 13 10 11 11 16 16 16 13 nan
nan 9 7 7 8 9 9 9 8 8 10 9 9 11 12 9 9 10 10 10 9 8 9 10 10 9 8 9 7 9 11 13 11 7 9 9 8 8 11 12 13 18 nan
nan 8 6 7 8 9 9 8 9 8 9 10 9 9 11 10 10 11 11 10 10 9 8 10 10 10 9 7 10 8 11 12 8 7 9 11 7 10 9 13 8 9 nan
nan 8 7 8 8 9 10 8 7 7 8 10 9 9 10 11 11 10 11 11 10 9 9 8 10 10 10 10 11 12 11 10 12 10 9 10 12 12 11 11 11 8 nan
nan 9 10 9 9 12 11 7 8 8 8 9 9 9 10 11 11 11 10 11 13 10 10 9 9 11 11 12 11 11 12 11 11 11 9 8 11 10 11 9 10 10 nan
nan 10 10 9 11 12 10 9 10 10 10 10 10 9 10 10 10 11 10 11 12 13 12 10 9 10 10 9 11 12 11 11 12 13 12 12 11 10 8 8 9 11 nan
nan 9 10 10 9 11 10 11 10 10 11 9 9 11 11 11 10 11 10 8 10 12 14 12 11 10 9 10 10 10 10 11 10 15 17 17 16 16 12 11 10 8 nan
nan 10 8 9 9 10 13 14 12 9 9 9 9 9 8 6 6 13 11 7 10 11 9 11 12 11 8 9 10 10 9 9 12 12 13 14 16 15 17 15 14 12 nan
nan 9 9 10 10 3 7 14 16 10 9 9 9 9 9 5 2 4 9 14 16 11 9 10 7 6 10 10 8 7 9 9 10 11 10 10 13 10 13 16 15 15 nan
nan 7 8 7 7 4 6 11 15 13 9 8 9 8 9 5 7 8 7 12 11 13 16 12 9 7 8 8 8 8 8 8 8 7 9 10 11 10 12 15 15 10 nan
nan 7 7 8 7 4 6 12 11 11 9 8 9 10 10 7 7 12 14 10 10 12 12 13 10 6 5 5 6 9 9 11 11 14 10 11 11 11 12 14 14 11 nan
nan 9 9 8 8 5 6 11 10 9 9 9 9 10 10 3 3 19 19 11 11 8 6 11 14 12 12 13 11 12 13 11 11 14 10 12 10 13 11 12 18 18 nan
nan nan nan nan nan nan nan nan nan nan nan nan nan nan nan nan nan nan nan nan nan nan nan nan nan nan nan nan nan nan nan nan nan nan nan nan nan nan nan nan nan nan nan
CAPE
459 314 238 102 23 22 0 0 0 1 13 52 38 25 25 69 159 106 7 288 1541 1634 2257 1964 1798 1685 1446 1540 1713 1848 1836 1784 1803 1861 1758 1844 1744 1763 1621 1661 1775 1934 2154
333 265 213 135 50 37 21 4 0 21 12 28 53 76 85 73 97 144 83 38 908 1434 1459 1301 1525 1683 1526 1894 2103 2091 2257 2229 2192 1950 2280 2263 2173 2258 1743 1763 1826 1897 2059
454 418 209 86 57 47 50 40 11 19 58 60 105 176 156 166 139 58 78 91 164 1314 1493 1150 1418 1693 2100 2201 2346 2468 2498 2612 2466 2561 2562 2490 2135 2175 2205 2141 2184 2066 2299
535 424 252 189 26 50 55 48 55 81 59 31 78 119 149 205 281 112 37 66 97 287 800 1740 1555 1733 1625 1332 2191 2330 2629 2697 2490 2403 2503 2573 2614 2457 2299 2152 2138 2049 1899
557 522 374 230 16 49 114 117 145 70 64 72 62 69 102 187 204 401 87 74 63 133 102 427 1554 1645 1290 1199 1193 1722 2289 2580 2695 2607 2296 2240 2311 2532 2460 2194 1925 1875 1899
5 0 5 149 86 71 57 55 295 75 109 109 252 347 169 144 133 103 30 53 84 96 123 98 170 419 1392 1652 1379 1979 1882 2363 2581 2501 2546 2281 2079 1950 2030 2204 2284 2118 1989
237 560 327 274 94 58 4 79 230 352 325 243 324 387 228 157 131 95 61 12 5 20 54 110 105 147 249 1007 1401 1589 2023 1852 2540 2605 2300 2124 2119 2032 1798 1609 1734 2001 2014
532 139 146 229 298 306 89 72 211 231 164 92 240 105 153 55 172 197 140 80 25 20 40 101 107 97 161 242 422 1241 1461 1460 2655 2467 2434 2219 1874 1789 1773 1509 1388 1563 1738
186 196 160 182 144 60 199 347 299 173 148 73 71 87 57 98 0 74 131 120 73 38 78 123 93 67 108 198 414 951 1281 1067 1474 2038 2346 2367 2112 1842 1751 1613 1417 1354 1457
204 201 571 210 170 160 240 215 410 201 82 32 31 67 39 19 103 48 35 154 66 66 92 116 176 111 129 114 264 545 1245 1107 1005 1259 1837 2553 2410 1749 1903 1768 1551 1437 1346
360 458 382 246 227 149 100 124 150 114 57 13 62 106 118 77 61 95 126 103 53 37 37 131 184 187 154 136 165 183 919 1095 933 1037 1097 1136 2351 2293 2148 1978 1954 1828 1752
23 37 11 12 4 0 0 0 46 84 69 0 1 100 28 180 154 70 93 111 61 50 63 78 153 165 137 131 275 571 523 739 774 492 673 642 765 1158 1910 2374 2465 2371 2187
0 0 0 0 0 0 0 0 0 0 10 0 0 1 3 122 119 28 40 65 86 51 52 56 119 143 189 175 269 800 825 572 394 398 446 347 639 828 1035 1254 1647 2350 2455
0 0 0 0 0 0 0 0 0 0 0 0 0 0 0 0 11 85 73 34 6 2 6 7 53 97 166 160 303 459 401 288 246 122 90 171 181 202 450 759 782 991 1425
8 50 0 0 0 0 0 0 0 0 0 0 0 0 0 0 0 0 2 12 24 5 0 34 46 55 152 145 125 182 227 306 190 90 65 43 85 112 73 150 230 390 470
80 0 0 0 0 0 0 0 0 0 0 0 0 0 0 0 0 0 0 2 7 14 30 69 40 9 62 124 69 129 214 186 59 29 22 17 8 1 30 47 111 139 206
20 14 0 0 0 0 0 0 0 0 0 0 0 0 0 0 0 0 0 0 0 1 1 0 0 8 10 33 44 113 226 138 110 32 15 6 2 0 13 13 61 105 84
4 0 0 0 0 0 0 0 0 0 0 0 0 0 0 0 0 0 0 0 0 0 1 1 0 0 3 11 1 19 91 176 91 39 5 0 1 0 0 0 1 0 0
137 0 0 0 0 0 0 0 0 0 0 0 0 0 0 0 0 0 0 0 0 0 0 1 0 0 0 0 7 31 59 60 124 85 14 0 0 0 0 1 0 1 1
31 0 0 0 0 0 0 0 0 0 0 0 0 0 0 0 0 0 0 0 0 0 0 0 0 0 0 0 0 0 0 0 0 69 80 70 16 1 0 0 0 0 0
0 0 0 0 0 0 0 0 0 0 0 0 0 0 0 0 1 0 0 0 0 0 0 0 0 0 0 0 0 0 0 0 0 0 0 1 27 0 0 0 0 0 0
0 0 0 0 0 0 0 0 0 0 0 0 0 0 0 0 0 0 0 0 0 0 0 0 0 0 2 0 0 0 0 1 0 0 29 19 59 55 107 105 53 0 1
0 0 0 0 0 0 0 0 0 0 0 0 0 0 0 0 0 0 0 0 0 0 0 0 0 0 0 0 0 0 0 0 1 0 0 1 56 46 163 308 244 26 1
0 0 0 0 0 0 0 0 0 0 0 0 0 0 0 0 0 0 0 0 0 0 0 0 0 0 0 0 0 0 0 0 2 0 23 13 8 0 13 70 129 40 1
0 0 0 0 0 0 0 0 0 0 0 0 0 0 0 0 0 1 0 0 0 0 0 1 0 0 0 0 0 0 0 0 0 0 0 15 0 0 0 0 13 79 3
0 0 0 0 0 0 0 0 0 0 0 0 0 0 0 0 0 0 0 0 0 0 0 0 0 0 0 0 0 0 0 1 0 0 0 86 0 0 0 0 0 0 1